Awg-1 Sea, Netherlands

9:18 AM CEST on June 23, 2017 (GMT +0200)
Awg-1 Sea

Weather History for EHMA - January, 2014

Change the Weather History Date:

Monday, January 27, 2014

  Actual Average (EHLW) Record (EHLW)
Temperature  
Mean Temperature 34 °F -  
Max Temperature 39 °F 41 °F 52 °F (2016)
Min Temperature 28 °F 33 °F 19 °F (1997)
Degree Days  
Heating Degree Days 32    
Moisture  
Dew Point 34 °F    
Average Humidity 84    
Maximum Humidity 100    
Minimum Humidity 70    
Precipitation  
Precipitation 0.00 in - - ()
Sea Level Pressure  
Sea Level Pressure 29.21 in    
Wind  
Wind Speed 21 mph ()    
Max Wind Speed 32 mph    
Max Gust Speed -    
Visibility 6.7 miles    
Events Rain , Snow    
Averages and records for this station are not official NWS values.
T = Trace of Precipitation, MM = Missing Value Source: Averaged Metar Reports

Daily Weather History Graph

Daily Weather History Graph

Search for Another Location

Airport or City:

Trip Planner

Search our weather history database for the weather conditions in past years. The results will help you decide how hot, cold, wet, or windy it might be!

Date:

Astronomy

Jan. 27, 2014 Rise Set
Actual Time 8:29 AM CET 5:09 PM CET
Civil Twilight 7:50 AM CET 5:48 PM CET
Nautical Twilight 7:07 AM CET 6:30 PM CET
Astronomical Twilight 6:26 AM CET 7:11 PM CET
Moon 5:00 AM CET (1/27) 1:32 PM CET (1/27)
Length of Visible Light 9h 57m
Length of Day
8h 39m
Waning Crescent, 17% of the Moon is Illuminated
Jan 27
Waning Crescent
Jan 30
New
Feb 6
First Quarter
Feb 15
Full
Feb 22
Last Quarter

Hourly Weather History & Observations

Time (CET) Temp. Windchill Dew Point Humidity Pressure Visibility Wind Dir Wind Speed Gust Speed Precip Events Conditions
12:00 AM 33 °F - 33 °F 98% 29.14 in 1 mi SE 20.1 mph - - Snow Snow Showers
12:25 AM 33.8 °F 21.6 °F 33.8 °F 100% 29.12 in - SE 23.0 mph - N/A Snow Light Snow
12:55 AM 33.8 °F 21.3 °F 33.8 °F 100% 29.09 in 1.8 mi SE 24.2 mph - N/A Snow Light Snow
1:00 AM 33 °F - 33 °F 99% 29.12 in 2 mi SE 20.1 mph - - Snow Light Snow
1:25 AM 33.8 °F 23.2 °F 33.8 °F 100% 29.09 in 3.1 mi South 17.3 mph - N/A Rain Light Rain
1:55 AM 35.6 °F 25.2 °F 33.8 °F 93% 29.09 in 6.2 mi South 18.4 mph - N/A   Mostly Cloudy
2:00 AM 36 °F - 35 °F 92% 29.11 in 7 mi SSW 15.7 mph - - Rain Rain
2:25 AM 37.4 °F 27.8 °F 35.6 °F 93% 29.09 in 6.2 mi West 17.3 mph - N/A   Scattered Clouds
2:55 AM 42.8 °F 33.8 °F 37.4 °F 81% 29.09 in 6.2 mi West 21.9 mph - N/A   Partly Cloudy
3:00 AM 43 °F - 38 °F 75% 29.11 in 6 mi West 17.9 mph - -   Partly Cloudy
3:25 AM 42.8 °F 33.3 °F 35.6 °F 76% 29.09 in 6.2 mi West 24.2 mph - N/A   Light Drizzle
3:55 AM 41.0 °F 30.7 °F 33.8 °F 76% 29.09 in 6.2 mi WNW 25.3 mph - N/A   Scattered Clouds
4:00 AM 42 °F - 37 °F 75% 29.13 in 7 mi WNW 20.1 mph - - Rain Light Rain Showers
4:25 AM 41.0 °F 30.7 °F 35.6 °F 81% 29.12 in 6.2 mi WNW 25.3 mph - N/A   Mostly Cloudy
4:55 AM 41.0 °F 31.6 °F 37.4 °F 87% 29.12 in 6.2 mi WNW 20.7 mph - N/A   Mostly Cloudy
5:00 AM 43 °F - 36 °F 70% 29.15 in 7 mi WNW 15.7 mph - - Rain Rain
5:25 AM 42.8 °F 33.1 °F 35.6 °F 76% 29.15 in 6.2 mi West 25.3 mph - N/A   Mostly Cloudy
5:55 AM 42.8 °F 34.0 °F 35.6 °F 76% 29.15 in 6.2 mi West 20.7 mph - N/A   Partly Cloudy
6:00 AM 41 °F - 35 °F 71% 29.17 in 7 mi West 15.7 mph - -   Partly Cloudy
6:25 AM 41.0 °F 31.9 °F 35.6 °F 81% 29.18 in 6.2 mi WSW 19.6 mph - N/A   Scattered Clouds
6:55 AM 39.2 °F 29.8 °F 35.6 °F 87% 29.18 in 6.2 mi WSW 18.4 mph - N/A   Scattered Clouds
7:00 AM 39 °F - 35 °F 80% 29.19 in 7 mi SW 13.4 mph - - Rain Rain
7:25 AM 39.2 °F 29.8 °F 33.8 °F 81% 29.18 in 6.2 mi WSW 18.4 mph - N/A   Partly Cloudy
7:55 AM 39.2 °F 30.2 °F 33.8 °F 81% 29.18 in 6.2 mi SW 17.3 mph - N/A   Partly Cloudy
8:00 AM 38 °F - 34 °F 81% 29.21 in 9 mi SW 15.7 mph - -   Scattered Clouds
8:25 AM 39.2 °F 30.2 °F 33.8 °F 81% 29.21 in 6.2 mi SW 17.3 mph - N/A   Partly Cloudy
8:55 AM 37.4 °F 27.5 °F 33.8 °F 87% 29.21 in 6.2 mi SSW 18.4 mph - N/A   Unknown
9:00 AM 37 °F - 33 °F 79% 29.22 in 9 mi SSW 17.9 mph - -  
9:25 AM 37.4 °F 26.6 °F 33.8 °F 87% 29.21 in 6.2 mi SSW 21.9 mph - N/A   Partly Cloudy
9:55 AM 37.4 °F 25.6 °F 33.8 °F 87% 29.21 in 6.2 mi SSW 26.5 mph - N/A   Partly Cloudy
10:00 AM 37 °F - 33 °F 79% 29.23 in 11 mi SSW 22.4 mph - -   Scattered Clouds
10:25 AM 37.4 °F 25.6 °F 32.0 °F 81% 29.21 in 6.2 mi SSW 26.5 mph - N/A   Partly Cloudy
10:55 AM 37.4 °F 25.6 °F 32.0 °F 81% 29.24 in 6.2 mi SSW 26.5 mph - N/A   Partly Cloudy
11:00 AM 37 °F - 33 °F 78% 29.24 in 13 mi SSW 22.4 mph - -   Scattered Clouds
11:25 AM 37.4 °F 24.6 °F 32.0 °F 81% 29.24 in 6.2 mi SSW 32.2 mph - N/A   Partly Cloudy
11:55 AM 37.4 °F 25.0 °F 33.8 °F 87% 29.24 in 6.2 mi SSW 29.9 mph - N/A   Partly Cloudy
12:00 PM 38 °F - 34 °F 81% 29.24 in 9 mi SSW 26.8 mph - -   Scattered Clouds
12:25 PM 39.2 °F 27.4 °F 35.6 °F 87% 29.24 in 6.2 mi SSW 29.9 mph - N/A   Partly Cloudy
12:55 PM 39.2 °F 27.4 °F 33.8 °F 81% 29.24 in 6.2 mi SSW 29.9 mph - N/A   Partly Cloudy
1:00 PM 39 °F - 34 °F 76% 29.25 in 12 mi SSW 24.6 mph - -   Partly Cloudy
1:25 PM 39.2 °F 27.2 °F 33.8 °F 81% 29.24 in 6.2 mi SSW 31.1 mph - N/A   Partly Cloudy
1:55 PM 39.2 °F 27.4 °F 33.8 °F 81% 29.24 in 6.2 mi SSW 29.9 mph - N/A   Unknown
2:00 PM 39 °F - 35 °F 79% 29.26 in 9 mi SSW 24.6 mph - -   Scattered Clouds
2:25 PM 39.2 °F 27.8 °F 33.8 °F 81% 29.24 in 6.2 mi SSW 27.6 mph - N/A   Unknown
2:55 PM 39.2 °F 27.4 °F 33.8 °F 81% 29.24 in 6.2 mi SSW 29.9 mph - N/A   Partly Cloudy
3:00 PM 39 °F - 34 °F 76% 29.26 in 11 mi SSW 26.8 mph - -   Scattered Clouds
3:25 PM 39.2 °F 28.0 °F 33.8 °F 81% 29.24 in 6.2 mi South 26.5 mph - N/A   Scattered Clouds
3:55 PM 39.2 °F 28.5 °F 33.8 °F 81% 29.27 in 6.2 mi South 24.2 mph - N/A   Mostly Cloudy
4:00 PM 39 °F - 35 °F 78% 29.27 in 11 mi South 17.9 mph - -   Mostly Cloudy
4:25 PM 39.2 °F 28.0 °F 33.8 °F 81% 29.24 in 6.2 mi South 26.5 mph - N/A   Mostly Cloudy
4:55 PM 39.2 °F 28.5 °F 33.8 °F 81% 29.27 in 6.2 mi South 24.2 mph - N/A   Scattered Clouds
5:00 PM 39 °F - 34 °F 74% 29.28 in 14 mi South 22.4 mph - -   Overcast
5:25 PM 37.4 °F 26.6 °F 33.8 °F 87% 29.27 in 6.2 mi South 21.9 mph - N/A   Mostly Cloudy
5:55 PM 39.2 °F 28.0 °F 33.8 °F 81% 29.27 in 6.2 mi SE 26.5 mph - N/A   Overcast
6:00 PM 38 °F - 33 °F 76% 29.28 in 19 mi SE 22.4 mph - -   Overcast
6:25 PM 37.4 °F 25.9 °F 33.8 °F 87% 29.27 in 6.2 mi SE 25.3 mph - N/A   Mostly Cloudy
6:55 PM 37.4 °F 25.6 °F 32.0 °F 81% 29.27 in 6.2 mi SE 26.5 mph - N/A   Partly Cloudy
7:00 PM 37 °F - 33 °F 79% 29.28 in 19 mi SE 22.4 mph - -   Partly Cloudy
7:25 PM 37.4 °F 25.6 °F 33.8 °F 87% 29.27 in 6.2 mi SE 26.5 mph - N/A   Partly Cloudy
7:55 PM 37.4 °F 25.0 °F 33.8 °F 87% 29.27 in 6.2 mi SE 29.9 mph - N/A   Partly Cloudy
8:00 PM 37 °F - 33 °F 80% 29.28 in 10 mi SE 24.6 mph - - Rain Light Drizzle
8:25 PM 37.4 °F 25.6 °F 33.8 °F 87% 29.27 in 5.6 mi SE 26.5 mph - N/A Rain Light Rain
8:55 PM 37.4 °F 24.8 °F 33.8 °F 87% 29.27 in 2.8 mi SE 31.1 mph - N/A Rain Light Rain Showers
9:00 PM 36 °F - 34 °F 90% 29.28 in 2 mi SE 26.8 mph - - Rain Rain
9:25 PM 35.6 °F 22.3 °F 33.8 °F 93% 29.27 in 1.9 mi South 31.1 mph - N/A Rain Light Rain Showers
9:55 PM 35.6 °F 22.5 °F 33.8 °F 93% 29.27 in - South 29.9 mph - N/A Rain Light Rain Showers
10:00 PM 36 °F - 35 °F 94% 29.28 in 4 mi South 24.6 mph - - Rain Heavy Rain
10:25 PM 37.4 °F 25.0 °F 35.6 °F 93% 29.27 in 3.1 mi South 29.9 mph - N/A Rain Light Rain
10:55 PM 37.4 °F 25.6 °F 35.6 °F 93% 29.27 in 3.1 mi South 26.5 mph - N/A Rain Light Rain
11:00 PM 38 °F - 36 °F 88% 29.30 in 4 mi South 22.4 mph - - Rain Light Rain
11:25 PM 37.4 °F 25.2 °F 35.6 °F 93% 29.30 in 5.6 mi South 28.8 mph - N/A   Overcast
11:55 PM 37.4 °F 25.9 °F 35.6 °F 93% 29.30 in 5.0 mi South 25.3 mph - N/A   Overcast